Cairns, Queensland

7:00 PM AEST on February 10, 2016 (GMT +1000)
Cairns International

Weather History for YBCS - September, 2013

Change the Weather History Date:

Tuesday, September 10, 2013

  Actual Average Record
Temperature  
Mean Temperature 74 °F -  
Max Temperature 82 °F 83 °F - (-1)
Min Temperature 67 °F 67 °F - (-1)
Cooling Degree Days 10    
Growing Degree Days 24 (Base 50)    
Moisture  
Dew Point 64 °F    
Average Humidity 72    
Maximum Humidity 94    
Minimum Humidity 48    
Precipitation  
Precipitation 0.00 in 0.05 in - ()
Sea Level Pressure  
Sea Level Pressure 29.97 in    
Wind  
Wind Speed 7 mph ()    
Max Wind Speed 14 mph    
Max Gust Speed -    
Visibility 6.9 miles    
Events      
Averages and records for this station are not official NWS values.
T = Trace of Precipitation, MM = Missing Value Source: Averaged Metar Reports

Daily Weather History Graph

Daily Weather History Graph

Search for Another Location

Airport or City:

Trip Planner

Search our weather history database for the weather conditions in past years. The results will help you decide how hot, cold, wet, or windy it might be!

Date:

Astronomy

Sep. 10, 2013 Rise Set
Actual Time 6:16 AM AEST 6:11 PM AEST
Civil Twilight 5:55 AM AEST 6:33 PM AEST
Nautical Twilight 5:30 AM AEST 6:58 PM AEST
Astronomical Twilight 5:04 AM AEST 7:23 PM AEST
Moon 9:21 AM AEST 10:28 PM AEST
Length of Visible Light 12h 38m
Length of Day
11h 54m
Waxing Crescent, 22% of the Moon is Illuminated
Sep 10
Waxing Crescent
Sep 13
First Quarter
Sep 19
Full
Sep 27
Last Quarter
Oct 5
New

Hourly Weather History & Observations

Time (AEST) Temp. Heat Index Dew Point Humidity Pressure Visibility Wind Dir Wind Speed Gust Speed Precip Events Conditions
12:00 AM 72 °F - 62 °F 63% 30.02 in - South 5.8 mph - -   Overcast
12:00 AM 73.4 °F - 62.6 °F 69% 30.01 in 6.2 mi South 5.8 mph - N/A   Mostly Cloudy
1:00 AM 69 °F - 62 °F 72% 30.01 in - SSE 5.8 mph - -  
1:00 AM 69.8 °F - 62.6 °F 78% 30.01 in 6.2 mi SSE 5.8 mph - N/A   Partly Cloudy
2:00 AM 71.6 °F - 62.6 °F 73% 29.98 in 6.2 mi South 6.9 mph - N/A   Scattered Clouds
2:30 AM 71.6 °F - 62.6 °F 73% 29.98 in 6.2 mi South 8.1 mph - N/A   Mostly Cloudy
3:00 AM 72 °F - 62 °F 62% 29.97 in - South 6.9 mph - -   Overcast
3:00 AM 71.6 °F - 60.8 °F 69% 29.95 in 6.2 mi South 6.9 mph - N/A   Mostly Cloudy
3:30 AM 71.6 °F - 60.8 °F 69% 29.95 in 6.2 mi South 6.9 mph - N/A   Mostly Cloudy
4:00 AM 68 °F - 63 °F 78% 29.96 in - SE 10.4 mph - -  
4:00 AM 68.0 °F - 62.6 °F 83% 29.95 in 6.2 mi SE 10.4 mph - N/A   Partly Cloudy
4:30 AM 68.0 °F - 62.6 °F 83% 29.95 in 6.2 mi SE 10.4 mph - N/A   Partly Cloudy
5:00 AM 68.0 °F - 62.6 °F 83% 29.95 in 6.2 mi SE 8.1 mph - N/A   Scattered Clouds
5:30 AM 68.0 °F - 62.6 °F 83% 29.95 in 6.2 mi SE 10.4 mph - N/A   Scattered Clouds
6:00 AM 69 °F - 63 °F 75% 29.98 in 16 mi WSW 1.2 mph - -   Partly Cloudy
6:00 AM 69.8 °F - 62.6 °F 78% 29.98 in 6.2 mi WSW 1.2 mph - N/A   Mostly Cloudy
6:30 AM 68.0 °F - 64.4 °F 88% 29.98 in 6.2 mi SE 11.5 mph - N/A   Mostly Cloudy
7:00 AM 69 °F - 63 °F 76% 30.01 in - SSE 10.4 mph - -  
7:00 AM 68.0 °F - 62.6 °F 83% 30.01 in 6.2 mi SSE 10.4 mph - N/A   Mostly Cloudy
7:30 AM 69.8 °F - 62.6 °F 78% 30.01 in 6.2 mi NNE 3.5 mph - N/A   Scattered Clouds
8:00 AM 69.8 °F - 62.6 °F 78% 30.01 in 6.2 mi SE 10.4 mph - N/A   Scattered Clouds
8:30 AM 75.2 °F - 62.6 °F 65% 30.01 in 6.2 mi SE 10.4 mph - N/A   Scattered Clouds
9:00 AM 77 °F - 63 °F 52% 30.02 in 19 mi South 10.4 mph - -   Partly Cloudy
9:00 AM 77.0 °F - 62.6 °F 61% 30.01 in 6.2 mi South 10.4 mph - N/A   Partly Cloudy
9:30 AM 78.8 °F - 62.6 °F 57% 30.01 in 6.2 mi South 8.1 mph - N/A   Partly Cloudy
10:00 AM 80 °F - 64 °F 48% 30.04 in - SSE 8.1 mph - -  
10:00 AM 78.8 °F - 64.4 °F 61% 30.01 in 6.2 mi SSE 8.1 mph - N/A   Partly Cloudy
10:30 AM 78.8 °F - 62.6 °F 57% 30.01 in 6.2 mi ESE 8.1 mph - N/A   Partly Cloudy
11:00 AM 80.6 °F 81.8 °F 62.6 °F 54% 30.01 in 6.2 mi ESE 8.1 mph - N/A   Partly Cloudy
11:30 AM 80.6 °F 82.3 °F 64.4 °F 58% 29.98 in 6.2 mi ENE 11.5 mph - N/A   Partly Cloudy
12:00 PM 81 °F - 65 °F 50% 29.98 in 19 mi ENE 13.8 mph - -   Partly Cloudy
12:00 PM 80.6 °F 82.7 °F 66.2 °F 61% 29.98 in 6.2 mi ENE 13.8 mph - N/A   Partly Cloudy
12:30 PM 80.6 °F 82.3 °F 64.4 °F 58% 29.95 in 6.2 mi ENE 12.7 mph - N/A   Partly Cloudy
1:00 PM 80.6 °F 82.3 °F 64.4 °F 58% 29.95 in 6.2 mi ENE 11.5 mph - N/A   Partly Cloudy
1:30 PM 82.4 °F 83.4 °F 62.6 °F 51% 29.92 in 6.2 mi ENE 10.4 mph - N/A   Partly Cloudy
2:00 PM 80.6 °F 82.3 °F 64.4 °F 58% 29.92 in 6.2 mi ENE 9.2 mph - N/A   Partly Cloudy
2:30 PM 82.4 °F 83.4 °F 62.6 °F 51% 29.89 in 6.2 mi ENE 9.2 mph - N/A   Partly Cloudy
3:00 PM 80.6 °F 82.7 °F 66.2 °F 61% 29.89 in 6.2 mi North 11.5 mph - N/A   Partly Cloudy
3:30 PM 80.6 °F 82.3 °F 64.4 °F 58% 29.89 in 6.2 mi NE 10.4 mph - N/A   Partly Cloudy
4:00 PM 80 °F - 64 °F 48% 29.90 in - NE 9.2 mph - -  
4:00 PM 80.6 °F 82.3 °F 64.4 °F 58% 29.89 in 6.2 mi NE 9.2 mph - N/A   Partly Cloudy
4:30 PM 78.8 °F - 66.2 °F 65% 29.89 in 6.2 mi NNE 10.4 mph - N/A   Partly Cloudy
5:00 PM 77.0 °F - 66.2 °F 69% 29.89 in 6.2 mi NNE 9.2 mph - N/A   Partly Cloudy
5:30 PM 75.2 °F - 66.2 °F 73% 29.89 in 6.2 mi NE 8.1 mph - N/A   Partly Cloudy
6:00 PM 74 °F - 67 °F 73% 29.92 in - ENE 6.9 mph - -  
6:00 PM 75.2 °F - 68.0 °F 78% 29.92 in 6.2 mi NE 6.9 mph - N/A   Partly Cloudy
6:30 PM 73.4 °F - 68.0 °F 83% 29.92 in 6.2 mi NE 4.6 mph - N/A   Partly Cloudy
7:00 PM 72 °F - 68 °F 82% 29.95 in - ENE 3.5 mph - -  
7:00 PM 73.4 °F - 68.0 °F 83% 29.92 in 6.2 mi ENE 3.5 mph - N/A   Partly Cloudy
7:30 PM 71.6 °F - 68.0 °F 88% 29.95 in 6.2 mi Calm Calm - N/A   Partly Cloudy
8:00 PM 71.6 °F - 68.0 °F 88% 29.95 in 6.2 mi Calm Calm - N/A   Partly Cloudy
8:30 PM 71.6 °F - 68.0 °F 88% 29.98 in 6.2 mi Calm Calm - N/A   Partly Cloudy
9:00 PM 70 °F - 67 °F 89% 29.98 in - Calm Calm - -  
9:00 PM 69.8 °F - 68.0 °F 94% 29.98 in 6.2 mi Calm Calm - N/A   Partly Cloudy
9:30 PM 69.8 °F - 68.0 °F 94% 29.98 in 6.2 mi Calm Calm - N/A   Partly Cloudy
10:00 PM 69 °F - 67 °F 92% 29.99 in - Calm Calm - -  
10:00 PM 69.8 °F - 68.0 °F 94% 29.98 in 6.2 mi Calm Calm - N/A   Partly Cloudy
10:30 PM 68.0 °F - 66.2 °F 94% 29.98 in 6.2 mi Calm Calm - N/A   Partly Cloudy
11:00 PM 68.0 °F - 66.2 °F 94% 29.98 in 6.2 mi Calm Calm - N/A   Partly Cloudy
11:30 PM 68.0 °F - 66.2 °F 94% 29.98 in 6.2 mi Calm Calm - N/A   Partly Cloudy